Wetterdaten: Dienstag, 01.09.2015
Datum Zeit Temp. A. Feuchte A. Luftdruck Regen Wind Richtung Richtung Sonnenschein ET UV Solar Taupunkt Windchill Windben Empfang
01.09.2015 00:01 22,8 C 59 % 1011,1 hPa 0,0 l/m 0,0 km/h (0 Bft) NO 48 0 min 0,000 mm 0,0 UV-I 0 W/m 14,4 C 22,8 C 0,0 km/h (0 Bft) 0,00 %
01.09.2015 00:06 22,7 C 59 % 1011,0 hPa 0,0 l/m 0,0 km/h (0 Bft) O-NO 78 0 min 0,000 mm 0,0 UV-I 0 W/m 14,3 C 22,7 C 0,0 km/h (0 Bft) 0,00 %
01.09.2015 00:11 22,7 C 59 % 1011,1 hPa 0,0 l/m 0,0 km/h (0 Bft) N-NO 19 0 min 0,000 mm 0,0 UV-I 0 W/m 14,3 C 22,7 C 0,0 km/h (0 Bft) 0,00 %
01.09.2015 00:16 22,6 C 60 % 1011,0 hPa 0,0 l/m 0,0 km/h (0 Bft) N 349 0 min 0,000 mm 0,0 UV-I 0 W/m 14,4 C 22,6 C 0,0 km/h (0 Bft) 0,00 %
01.09.2015 00:21 22,5 C 60 % 1011,1 hPa 0,0 l/m 0,0 km/h (0 Bft) W-SW 256 0 min 0,000 mm 0,0 UV-I 0 W/m 14,3 C 22,5 C 0,0 km/h (0 Bft) 0,00 %
01.09.2015 00:26 22,4 C 60 % 1011,2 hPa 0,0 l/m 0,7 km/h (0 Bft) W-NW 302 0 min 0,000 mm 0,0 UV-I 0 W/m 14,2 C 22,4 C 4,0 km/h (1 Bft) 0,00 %
01.09.2015 00:31 22,4 C 60 % 1011,2 hPa 0,0 l/m 0,0 km/h (0 Bft) N-NO 26 0 min 0,000 mm 0,0 UV-I 0 W/m 14,2 C 22,4 C 0,0 km/h (0 Bft) 0,00 %
01.09.2015 00:36 22,4 C 61 % 1011,1 hPa 0,0 l/m 0,0 km/h (0 Bft) N-NW 330 0 min 0,000 mm 0,0 UV-I 0 W/m 14,5 C 22,4 C 0,0 km/h (0 Bft) 0,00 %
01.09.2015 00:41 22,3 C 61 % 1011,2 hPa 0,0 l/m 0,0 km/h (0 Bft) NO 50 0 min 0,000 mm 0,0 UV-I 0 W/m 14,4 C 22,3 C 0,0 km/h (0 Bft) 0,00 %
01.09.2015 00:46 22,2 C 62 % 1011,1 hPa 0,0 l/m 0,0 km/h (0 Bft) NO 50 0 min 0,000 mm 0,0 UV-I 0 W/m 14,6 C 22,2 C 0,0 km/h (0 Bft) 0,00 %
01.09.2015 00:51 22,0 C 62 % 1011,1 hPa 0,0 l/m 0,0 km/h (0 Bft) NO 54 0 min 0,000 mm 0,0 UV-I 0 W/m 14,4 C 22,0 C 0,0 km/h (0 Bft) 0,00 %
01.09.2015 00:56 21,9 C 61 % 1011,2 hPa 0,0 l/m 0,0 km/h (0 Bft) NO 55 0 min 0,000 mm 0,0 UV-I 0 W/m 14,0 C 21,9 C 0,0 km/h (0 Bft) 0,00 %
01.09.2015 01:01 21,8 C 62 % 1011,3 hPa 0,0 l/m 0,0 km/h (0 Bft) N-NO 18 0 min 0,000 mm 0,0 UV-I 0 W/m 14,2 C 21,8 C 0,0 km/h (0 Bft) 0,00 %
01.09.2015 01:06 21,7 C 63 % 1011,3 hPa 0,0 l/m 0,0 km/h (0 Bft) O-NO 66 0 min 0,000 mm 0,0 UV-I 0 W/m 14,3 C 21,7 C 0,0 km/h (0 Bft) 0,00 %
01.09.2015 01:11 21,6 C 63 % 1011,1 hPa 0,0 l/m 0,0 km/h (0 Bft) N 354 0 min 0,000 mm 0,0 UV-I 0 W/m 14,2 C 21,6 C 0,0 km/h (0 Bft) 0,00 %
01.09.2015 01:16 21,6 C 62 % 1011,2 hPa 0,0 l/m 0,0 km/h (0 Bft) O-NO 60 0 min 0,000 mm 0,0 UV-I 0 W/m 14,0 C 21,6 C 0,0 km/h (0 Bft) 0,00 %
01.09.2015 01:21 21,7 C 62 % 1011,4 hPa 0,0 l/m 0,0 km/h (0 Bft) NO 51 0 min 0,000 mm 0,0 UV-I 0 W/m 14,1 C 21,7 C 0,0 km/h (0 Bft) 0,00 %
01.09.2015 01:26 21,9 C 63 % 1011,3 hPa 0,0 l/m 0,7 km/h (0 Bft) N 349 0 min 0,000 mm 0,0 UV-I 0 W/m 14,5 C 21,9 C 4,0 km/h (1 Bft) 0,00 %
01.09.2015 01:31 21,9 C 62 % 1011,4 hPa 0,0 l/m 0,0 km/h (0 Bft) NO 37 0 min 0,000 mm 0,0 UV-I 0 W/m 14,3 C 21,9 C 0,0 km/h (0 Bft) 0,00 %
01.09.2015 01:36 22,0 C 63 % 1011,2 hPa 0,0 l/m 0,4 km/h (0 Bft) NW 323 0 min 0,000 mm 0,0 UV-I 0 W/m 14,6 C 22,0 C 4,0 km/h (1 Bft) 0,00 %
01.09.2015 01:41 21,9 C 62 % 1011,4 hPa 0,0 l/m 0,0 km/h (0 Bft) O-NO 57 0 min 0,000 mm 0,0 UV-I 0 W/m 14,3 C 21,9 C 0,0 km/h (0 Bft) 0,00 %
01.09.2015 01:46 21,9 C 62 % 1011,4 hPa 0,0 l/m 0,4 km/h (0 Bft) O-NO 74 0 min 0,000 mm 0,0 UV-I 0 W/m 14,3 C 21,9 C 4,0 km/h (1 Bft) 0,00 %
01.09.2015 01:51 21,9 C 62 % 1011,2 hPa 0,0 l/m 0,4 km/h (0 Bft) O-NO 66 0 min 0,000 mm 0,0 UV-I 0 W/m 14,3 C 21,9 C 4,0 km/h (1 Bft) 0,00 %
01.09.2015 01:56 21,9 C 62 % 1011,1 hPa 0,0 l/m 0,0 km/h (0 Bft) NO 36 0 min 0,000 mm 0,0 UV-I 0 W/m 14,3 C 21,9 C 0,0 km/h (0 Bft) 0,00 %
01.09.2015 02:01 21,8 C 63 % 1011,1 hPa 0,0 l/m 0,0 km/h (0 Bft) NO 46 0 min 0,000 mm 0,0 UV-I 0 W/m 14,4 C 21,8 C 0,0 km/h (0 Bft) 0,00 %
01.09.2015 02:06 21,7 C 63 % 1011,3 hPa 0,0 l/m 0,0 km/h (0 Bft) NO 54 0 min 0,000 mm 0,0 UV-I 0 W/m 14,3 C 21,7 C 0,0 km/h (0 Bft) 0,00 %
01.09.2015 02:11 21,5 C 63 % 1011,2 hPa 0,0 l/m 0,0 km/h (0 Bft) O-NO 62 0 min 0,000 mm 0,0 UV-I 0 W/m 14,2 C 21,5 C 0,0 km/h (0 Bft) 0,00 %
01.09.2015 02:16 21,4 C 63 % 1011,0 hPa 0,0 l/m 0,0 km/h (0 Bft) N-NW 330 0 min 0,000 mm 0,0 UV-I 0 W/m 14,1 C 21,4 C 0,0 km/h (0 Bft) 0,00 %
01.09.2015 02:21 21,4 C 62 % 1011,2 hPa 0,0 l/m 0,0 km/h (0 Bft) N 350 0 min 0,000 mm 0,0 UV-I 0 W/m 13,8 C 21,4 C 0,0 km/h (0 Bft) 0,00 %
01.09.2015 02:26 21,4 C 62 % 1011,3 hPa 0,0 l/m 0,0 km/h (0 Bft) NO 47 0 min 0,000 mm 0,0 UV-I 0 W/m 13,8 C 21,4 C 0,0 km/h (0 Bft) 0,00 %
01.09.2015 02:31 21,4 C 62 % 1011,1 hPa 0,0 l/m 0,0 km/h (0 Bft) O-NO 65 0 min 0,000 mm 0,0 UV-I 0 W/m 13,8 C 21,4 C 0,0 km/h (0 Bft) 0,00 %
01.09.2015 02:36 21,4 C 62 % 1011,1 hPa 0,0 l/m 0,0 km/h (0 Bft) NO 48 0 min 0,000 mm 0,0 UV-I 0 W/m 13,8 C 21,4 C 0,0 km/h (0 Bft) 0,00 %
01.09.2015 02:41 21,3 C 62 % 1011,1 hPa 0,0 l/m 0,0 km/h (0 Bft) O-NO 57 0 min 0,000 mm 0,0 UV-I 0 W/m 13,7 C 21,3 C 0,0 km/h (0 Bft) 0,00 %
01.09.2015 02:46 21,3 C 62 % 1010,9 hPa 0,0 l/m 0,0 km/h (0 Bft) NO 50 0 min 0,000 mm 0,0 UV-I 0 W/m 13,7 C 21,3 C 0,0 km/h (0 Bft) 0,00 %
01.09.2015 02:51 21,3 C 62 % 1011,1 hPa 0,0 l/m 0,0 km/h (0 Bft) NO 44 0 min 0,000 mm 0,0 UV-I 0 W/m 13,7 C 21,3 C 0,0 km/h (0 Bft) 0,00 %
01.09.2015 02:56 21,2 C 62 % 1011,2 hPa 0,0 l/m 0,0 km/h (0 Bft) NO 55 0 min 0,000 mm 0,0 UV-I 0 W/m 13,6 C 21,2 C 0,0 km/h (0 Bft) 0,00 %
01.09.2015 03:01 21,1 C 62 % 1011,0 hPa 0,0 l/m 0,0 km/h (0 Bft) O-NO 71 0 min 0,000 mm 0,0 UV-I 0 W/m 13,5 C 21,1 C 0,0 km/h (0 Bft) 0,00 %
01.09.2015 03:06 21,0 C 64 % 1011,0 hPa 0,0 l/m 0,0 km/h (0 Bft) NO 49 0 min 0,000 mm 0,0 UV-I 0 W/m 13,9 C 21,0 C 0,0 km/h (0 Bft) 0,00 %
01.09.2015 03:11 20,9 C 64 % 1010,9 hPa 0,0 l/m 0,0 km/h (0 Bft) O-NO 59 0 min 0,000 mm 0,0 UV-I 0 W/m 13,8 C 20,9 C 0,0 km/h (0 Bft) 0,00 %
01.09.2015 03:16 20,7 C 66 % 1011,1 hPa 0,0 l/m 0,0 km/h (0 Bft) O-NO 66 0 min 0,000 mm 0,0 UV-I 0 W/m 14,1 C 20,7 C 0,0 km/h (0 Bft) 0,00 %
01.09.2015 03:21 20,4 C 67 % 1011,2 hPa 0,0 l/m 0,0 km/h (0 Bft) O-NO 67 0 min 0,000 mm 0,0 UV-I 0 W/m 14,1 C 20,4 C 0,0 km/h (0 Bft) 0,00 %
01.09.2015 03:26 20,0 C 68 % 1011,0 hPa 0,0 l/m 0,0 km/h (0 Bft) O-NO 60 0 min 0,000 mm 0,0 UV-I 0 W/m 13,9 C 20,0 C 0,0 km/h (0 Bft) 0,00 %
01.09.2015 03:31 19,9 C 69 % 1011,2 hPa 0,0 l/m 0,0 km/h (0 Bft) NO 53 0 min 0,000 mm 0,0 UV-I 0 W/m 14,0 C 19,9 C 0,0 km/h (0 Bft) 0,00 %
01.09.2015 03:36 19,9 C 69 % 1011,1 hPa 0,0 l/m 0,0 km/h (0 Bft) NO 40 0 min 0,000 mm 0,0 UV-I 0 W/m 14,0 C 19,9 C 0,0 km/h (0 Bft) 0,00 %
01.09.2015 03:41 19,8 C 70 % 1011,1 hPa 0,0 l/m 0,0 km/h (0 Bft) NO 42 0 min 0,000 mm 0,0 UV-I 0 W/m 14,2 C 19,8 C 0,0 km/h (0 Bft) 0,00 %
01.09.2015 03:46 19,7 C 70 % 1011,0 hPa 0,0 l/m 0,0 km/h (0 Bft) NO 42 0 min 0,000 mm 0,0 UV-I 0 W/m 14,1 C 19,7 C 0,0 km/h (0 Bft) 0,00 %
01.09.2015 03:51 19,6 C 71 % 1011,2 hPa 0,0 l/m 0,0 km/h (0 Bft) NO 49 0 min 0,000 mm 0,0 UV-I 0 W/m 14,2 C 19,6 C 0,0 km/h (0 Bft) 0,00 %
01.09.2015 03:56 19,1 C 73 % 1011,3 hPa 0,0 l/m 0,0 km/h (0 Bft) NO 43 0 min 0,000 mm 0,0 UV-I 0 W/m 14,1 C 19,1 C 0,0 km/h (0 Bft) 0,00 %
01.09.2015 04:01 18,8 C 73 % 1011,4 hPa 0,0 l/m 0,0 km/h (0 Bft) NO 52 0 min 0,000 mm 0,0 UV-I 0 W/m 13,9 C 18,8 C 0,0 km/h (0 Bft) 0,00 %
01.09.2015 04:06 18,6 C 75 % 1011,4 hPa 0,0 l/m 0,0 km/h (0 Bft) O-NO 57 0 min 0,000 mm 0,0 UV-I 0 W/m 14,1 C 18,6 C 0,0 km/h (0 Bft) 0,00 %
01.09.2015 04:11 18,3 C 77 % 1011,5 hPa 0,0 l/m 0,0 km/h (0 Bft) NO 43 0 min 0,000 mm 0,0 UV-I 0 W/m 14,2 C 18,3 C 0,0 km/h (0 Bft) 0,00 %
01.09.2015 04:16 18,0 C 78 % 1011,5 hPa 0,0 l/m 0,0 km/h (0 Bft) NO 42 0 min 0,000 mm 0,0 UV-I 0 W/m 14,1 C 18,0 C 0,0 km/h (0 Bft) 0,00 %
01.09.2015 04:21 17,8 C 78 % 1011,5 hPa 0,0 l/m 0,0 km/h (0 Bft) NO 44 0 min 0,000 mm 0,0 UV-I 0 W/m 13,9 C 17,8 C 0,0 km/h (0 Bft) 0,00 %
01.09.2015 04:26 17,7 C 78 % 1011,4 hPa 0,0 l/m 0,0 km/h (0 Bft) O-NO 63 0 min 0,000 mm 0,0 UV-I 0 W/m 13,8 C 17,7 C 0,0 km/h (0 Bft) 0,00 %
01.09.2015 04:31 17,5 C 79 % 1011,3 hPa 0,0 l/m 0,0 km/h (0 Bft) NO 51 0 min 0,000 mm 0,0 UV-I 0 W/m 13,8 C 17,5 C 0,0 km/h (0 Bft) 0,00 %
01.09.2015 04:36 17,4 C 79 % 1011,6 hPa 0,0 l/m 0,0 km/h (0 Bft) NO 44 0 min 0,000 mm 0,0 UV-I 0 W/m 13,7 C 17,4 C 0,0 km/h (0 Bft) 0,00 %
01.09.2015 04:41 17,4 C 78 % 1011,7 hPa 0,0 l/m 0,0 km/h (0 Bft) NO 51 0 min 0,000 mm 0,0 UV-I 0 W/m 13,5 C 17,4 C 0,0 km/h (0 Bft) 0,00 %
01.09.2015 04:46 17,5 C 78 % 1011,6 hPa 0,0 l/m 0,0 km/h (0 Bft) NO 49 0 min 0,000 mm 0,0 UV-I 0 W/m 13,6 C 17,5 C 0,0 km/h (0 Bft) 0,00 %
01.09.2015 04:51 17,6 C 78 % 1011,5 hPa 0,0 l/m 0,0 km/h (0 Bft) NO 41 0 min 0,000 mm 0,0 UV-I 0 W/m 13,7 C 17,6 C 0,0 km/h (0 Bft) 0,00 %
01.09.2015 04:56 17,7 C 77 % 1011,4 hPa 0,0 l/m 0,0 km/h (0 Bft) NO 46 0 min 0,000 mm 0,0 UV-I 0 W/m 13,6 C 17,7 C 0,0 km/h (0 Bft) 0,00 %
01.09.2015 05:01 17,8 C 77 % 1011,4 hPa 0,0 l/m 0,0 km/h (0 Bft) NO 34 0 min 0,000 mm 0,0 UV-I 0 W/m 13,7 C 17,8 C 0,0 km/h (0 Bft) 0,00 %
01.09.2015 05:06 17,8 C 76 % 1011,3 hPa 0,0 l/m 0,0 km/h (0 Bft) NO 41 0 min 0,000 mm 0,0 UV-I 0 W/m 13,5 C 17,8 C 0,0 km/h (0 Bft) 0,00 %
01.09.2015 05:11 17,9 C 75 % 1011,4 hPa 0,0 l/m 0,0 km/h (0 Bft) NO 53 0 min 0,000 mm 0,0 UV-I 0 W/m 13,4 C 17,9 C 0,0 km/h (0 Bft) 0,00 %
01.09.2015 05:16 18,0 C 75 % 1011,4 hPa 0,0 l/m 0,0 km/h (0 Bft) NO 42 0 min 0,000 mm 0,0 UV-I 0 W/m 13,5 C 18,0 C 0,0 km/h (0 Bft) 0,00 %
01.09.2015 05:21 18,1 C 75 % 1011,4 hPa 0,0 l/m 0,0 km/h (0 Bft) NO 43 0 min 0,000 mm 0,0 UV-I 0 W/m 13,6 C 18,1 C 0,0 km/h (0 Bft) 0,00 %
01.09.2015 05:26 18,1 C 75 % 1011,3 hPa 0,0 l/m 0,0 km/h (0 Bft) NO 44 0 min 0,000 mm 0,0 UV-I 0 W/m 13,6 C 18,1 C 0,0 km/h (0 Bft) 0,00 %
01.09.2015 05:31 18,2 C 75 % 1011,3 hPa 0,0 l/m 0,0 km/h (0 Bft) NO 43 0 min 0,000 mm 0,0 UV-I 0 W/m 13,7 C 18,2 C 0,0 km/h (0 Bft) 0,00 %
01.09.2015 05:36 18,2 C 75 % 1011,1 hPa 0,0 l/m 0,0 km/h (0 Bft) NO 40 0 min 0,000 mm 0,0 UV-I 0 W/m 13,7 C 18,2 C 0,0 km/h (0 Bft) 0,00 %
01.09.2015 05:41 18,2 C 75 % 1011,2 hPa 0,0 l/m 0,0 km/h (0 Bft) NO 41 0 min 0,000 mm 0,0 UV-I 0 W/m 13,7 C 18,2 C 0,0 km/h (0 Bft) 0,00 %
01.09.2015 05:46 18,1 C 76 % 1011,1 hPa 0,0 l/m 0,0 km/h (0 Bft) NO 43 0 min 0,000 mm 0,0 UV-I 0 W/m 13,8 C 18,1 C 0,0 km/h (0 Bft) 0,00 %
01.09.2015 05:51 18,0 C 77 % 1011,1 hPa 0,0 l/m 0,0 km/h (0 Bft) NO 43 0 min 0,000 mm 0,0 UV-I 0 W/m 13,9 C 18,0 C 0,0 km/h (0 Bft) 0,00 %
01.09.2015 05:56 17,9 C 77 % 1011,1 hPa 0,0 l/m 0,0 km/h (0 Bft) NO 44 0 min 0,000 mm 0,0 UV-I 0 W/m 13,8 C 17,9 C 0,0 km/h (0 Bft) 0,00 %
01.09.2015 06:01 17,8 C 78 % 1011,2 hPa 0,0 l/m 0,0 km/h (0 Bft) NO 42 0 min 0,000 mm 0,0 UV-I 0 W/m 13,9 C 17,8 C 0,0 km/h (0 Bft) 0,00 %
01.09.2015 06:06 17,7 C 79 % 1011,0 hPa 0,0 l/m 0,0 km/h (0 Bft) NO 42 0 min 0,000 mm 0,0 UV-I 0 W/m 14,0 C 17,7 C 0,0 km/h (0 Bft) 0,00 %
01.09.2015 06:11 17,6 C 80 % 1011,1 hPa 0,0 l/m 0,0 km/h (0 Bft) NO 38 0 min 0,000 mm 0,0 UV-I 0 W/m 14,1 C 17,6 C 0,0 km/h (0 Bft) 0,00 %
01.09.2015 06:16 17,5 C 80 % 1011,0 hPa 0,0 l/m 0,0 km/h (0 Bft) NO 41 0 min 0,000 mm 0,0 UV-I 0 W/m 14,0 C 17,5 C 0,0 km/h (0 Bft) 0,00 %
01.09.2015 06:21 17,2 C 81 % 1010,8 hPa 0,0 l/m 0,0 km/h (0 Bft) NO 41 0 min 0,000 mm 0,0 UV-I 0 W/m 13,9 C 17,2 C 0,0 km/h (0 Bft) 0,00 %
01.09.2015 06:26 17,0 C 80 % 1011,0 hPa 0,0 l/m 0,0 km/h (0 Bft) NO 43 0 min 0,000 mm 0,0 UV-I 4 W/m 13,5 C 17,0 C 0,0 km/h (0 Bft) 0,00 %
01.09.2015 06:31 16,9 C 80 % 1010,7 hPa 0,0 l/m 0,0 km/h (0 Bft) NO 47 5 min 0,000 mm 0,0 UV-I 9 W/m 13,4 C 16,9 C 0,0 km/h (0 Bft) 0,00 %
01.09.2015 06:36 16,7 C 80 % 1010,8 hPa 0,0 l/m 0,0 km/h (0 Bft) NO 44 5 min 0,000 mm 0,0 UV-I 19 W/m 13,2 C 16,7 C 0,0 km/h (0 Bft) 0,00 %
01.09.2015 06:41 16,7 C 81 % 1010,8 hPa 0,0 l/m 0,0 km/h (0 Bft) NO 36 5 min 0,000 mm 0,0 UV-I 29 W/m 13,4 C 16,7 C 0,0 km/h (0 Bft) 0,00 %
01.09.2015 06:46 16,7 C 82 % 1010,8 hPa 0,0 l/m 0,0 km/h (0 Bft) NO 46 5 min 0,000 mm 0,0 UV-I 39 W/m 13,6 C 16,7 C 0,0 km/h (0 Bft) 0,00 %
01.09.2015 06:51 16,9 C 82 % 1010,8 hPa 0,0 l/m 0,0 km/h (0 Bft) NO 44 5 min 0,000 mm 0,0 UV-I 51 W/m 13,8 C 16,9 C 0,0 km/h (0 Bft) 0,00 %
01.09.2015 06:56 17,2 C 81 % 1010,7 hPa 0,0 l/m 0,0 km/h (0 Bft) NO 44 5 min 0,000 mm 0,0 UV-I 62 W/m 13,9 C 17,2 C 0,0 km/h (0 Bft) 0,00 %
01.09.2015 07:01 17,6 C 79 % 1010,6 hPa 0,0 l/m 0,0 km/h (0 Bft) N-NO 24 5 min 0,000 mm 0,0 UV-I 74 W/m 13,9 C 17,6 C 0,0 km/h (0 Bft) 0,00 %
01.09.2015 07:07 17,9 C 77 % 1010,8 hPa 0,0 l/m 0,0 km/h (0 Bft) NO 44 6 min 0,000 mm 0,0 UV-I 85 W/m 13,8 C 17,9 C 0,0 km/h (0 Bft) 0,00 %
01.09.2015 07:12 18,4 C 75 % 1010,8 hPa 0,0 l/m 0,0 km/h (0 Bft) NO 41 5 min 0,000 mm 0,0 UV-I 92 W/m 13,9 C 18,4 C 0,0 km/h (0 Bft) 0,00 %
01.09.2015 07:17 18,7 C 72 % 1010,7 hPa 0,0 l/m 0,0 km/h (0 Bft) NO 41 5 min 0,000 mm 0,0 UV-I 98 W/m 13,5 C 18,7 C 0,0 km/h (0 Bft) 0,00 %
01.09.2015 07:22 19,1 C 70 % 1010,7 hPa 0,0 l/m 0,0 km/h (0 Bft) NO 43 5 min 0,000 mm 0,0 UV-I 102 W/m 13,5 C 19,1 C 0,0 km/h (0 Bft) 0,00 %
01.09.2015 07:27 19,5 C 66 % 1010,8 hPa 0,0 l/m 0,0 km/h (0 Bft) NO 44 5 min 0,000 mm 0,0 UV-I 106 W/m 13,0 C 19,5 C 0,0 km/h (0 Bft) 0,00 %
01.09.2015 07:32 20,0 C 64 % 1010,7 hPa 0,0 l/m 0,0 km/h (0 Bft) NO 39 5 min 0,000 mm 0,0 UV-I 110 W/m 13,0 C 20,0 C 0,0 km/h (0 Bft) 0,00 %
01.09.2015 07:37 20,6 C 61 % 1010,7 hPa 0,0 l/m 0,0 km/h (0 Bft) N-NO 32 5 min 0,000 mm 1,0 UV-I 116 W/m 12,8 C 20,6 C 0,0 km/h (0 Bft) 0,00 %
01.09.2015 07:42 21,2 C 60 % 1010,7 hPa 0,0 l/m 0,0 km/h (0 Bft) NO 38 5 min 0,000 mm 1,0 UV-I 126 W/m 13,1 C 21,2 C 0,0 km/h (0 Bft) 0,00 %
01.09.2015 07:47 21,8 C 60 % 1010,9 hPa 0,0 l/m 0,0 km/h (0 Bft) NO 46 5 min 0,000 mm 1,0 UV-I 130 W/m 13,7 C 21,8 C 0,0 km/h (0 Bft) 0,00 %
01.09.2015 07:52 22,4 C 57 % 1010,9 hPa 0,0 l/m 0,0 km/h (0 Bft) O-NO 57 0 min 0,000 mm 1,0 UV-I 131 W/m 13,5 C 22,4 C 0,0 km/h (0 Bft) 0,00 %
01.09.2015 07:57 23,0 C 56 % 1010,8 hPa 0,0 l/m 0,0 km/h (0 Bft) N-NO 32 0 min 0,000 mm 1,0 UV-I 136 W/m 13,7 C 23,0 C 0,0 km/h (0 Bft) 0,00 %
01.09.2015 08:02 23,3 C 56 % 1010,7 hPa 0,0 l/m 0,0 km/h (0 Bft) NO 52 0 min 0,000 mm 1,0 UV-I 142 W/m 14,0 C 23,3 C 0,0 km/h (0 Bft) 0,00 %
01.09.2015 08:07 23,7 C 56 % 1010,7 hPa 0,0 l/m 0,0 km/h (0 Bft) NO 50 0 min 0,000 mm 1,0 UV-I 156 W/m 14,4 C 23,7 C 0,0 km/h (0 Bft) 0,00 %
01.09.2015 08:12 24,0 C 54 % 1010,4 hPa 0,0 l/m 0,0 km/h (0 Bft) NO 40 5 min 0,000 mm 1,0 UV-I 166 W/m 14,1 C 24,0 C 0,0 km/h (0 Bft) 0,00 %
01.09.2015 08:17 24,3 C 52 % 1010,6 hPa 0,0 l/m 0,0 km/h (0 Bft) O 84 5 min 0,000 mm 1,0 UV-I 180 W/m 13,8 C 24,3 C 0,0 km/h (0 Bft) 0,00 %
01.09.2015 08:22 24,6 C 51 % 1010,6 hPa 0,0 l/m 0,0 km/h (0 Bft) O-NO 62 5 min 0,000 mm 1,0 UV-I 203 W/m 13,8 C 24,6 C 0,0 km/h (0 Bft) 0,00 %
01.09.2015 08:27 24,9 C 50 % 1010,5 hPa 0,0 l/m 0,0 km/h (0 Bft) O 97 5 min 0,000 mm 1,0 UV-I 223 W/m 13,7 C 24,9 C 0,0 km/h (0 Bft) 0,00 %
01.09.2015 08:32 25,2 C 50 % 1010,5 hPa 0,0 l/m 0,0 km/h (0 Bft) NO 49 5 min 0,000 mm 1,0 UV-I 250 W/m 14,0 C 25,2 C 0,0 km/h (0 Bft) 0,00 %
01.09.2015 08:37 25,6 C 48 % 1010,5 hPa 0,0 l/m 0,0 km/h (0 Bft) NO 45 5 min 0,000 mm 1,0 UV-I 225 W/m 13,8 C 25,6 C 0,0 km/h (0 Bft) 0,00 %
01.09.2015 08:42 26,0 C 48 % 1010,5 hPa 0,0 l/m 0,0 km/h (0 Bft) NO 48 5 min 0,000 mm 1,0 UV-I 294 W/m 14,1 C 26,0 C 0,0 km/h (0 Bft) 0,00 %
01.09.2015 08:47 26,1 C 48 % 1010,4 hPa 0,0 l/m 0,0 km/h (0 Bft) N-NO 30 5 min 0,000 mm 1,0 UV-I 287 W/m 14,2 C 26,1 C 0,0 km/h (0 Bft) 0,00 %
01.09.2015 08:52 26,2 C 47 % 1010,4 hPa 0,0 l/m 0,0 km/h (0 Bft) O-NO 72 5 min 0,000 mm 1,0 UV-I 309 W/m 14,0 C 26,2 C 0,0 km/h (0 Bft) 0,00 %
01.09.2015 08:57 26,4 C 46 % 1010,4 hPa 0,0 l/m 0,0 km/h (0 Bft) NO 47 5 min 0,000 mm 1,0 UV-I 288 W/m 13,8 C 26,4 C 0,0 km/h (0 Bft) 0,00 %
01.09.2015 09:02 26,6 C 47 % 1010,2 hPa 0,0 l/m 0,0 km/h (0 Bft) O-NO 76 5 min 0,000 mm 1,0 UV-I 340 W/m 14,3 C 26,6 C 0,0 km/h (0 Bft) 0,00 %
01.09.2015 09:07 26,7 C 46 % 1010,3 hPa 0,0 l/m 0,0 km/h (0 Bft) N 352 5 min 0,000 mm 1,0 UV-I 275 W/m 14,1 C 26,7 C 0,0 km/h (0 Bft) 0,00 %
01.09.2015 09:12 26,8 C 47 % 1010,2 hPa 0,0 l/m 0,0 km/h (0 Bft) NO 46 0 min 0,000 mm 1,0 UV-I 226 W/m 14,5 C 26,8 C 0,0 km/h (0 Bft) 0,00 %
01.09.2015 09:17 26,7 C 47 % 1010,3 hPa 0,0 l/m 0,0 km/h (0 Bft) NO 41 0 min 0,000 mm 1,0 UV-I 216 W/m 14,4 C 26,7 C 0,0 km/h (0 Bft) 0,00 %
01.09.2015 09:22 26,5 C 48 % 1010,3 hPa 0,0 l/m 0,0 km/h (0 Bft) NO 47 0 min 0,000 mm 1,0 UV-I 214 W/m 14,6 C 26,5 C 0,0 km/h (0 Bft) 0,00 %
01.09.2015 09:27 26,4 C 49 % 1010,4 hPa 0,0 l/m 0,0 km/h (0 Bft) N-NO 30 0 min 0,000 mm 1,0 UV-I 221 W/m 14,8 C 26,4 C 0,0 km/h (0 Bft) 0,00 %
01.09.2015 09:32 26,4 C 49 % 1010,3 hPa 0,0 l/m 0,0 km/h (0 Bft) NO 40 0 min 0,000 mm 1,0 UV-I 234 W/m 14,8 C 26,4 C 0,0 km/h (0 Bft) 0,00 %
01.09.2015 09:37 26,3 C 48 % 1010,3 hPa 0,0 l/m 0,0 km/h (0 Bft) NO 46 0 min 0,000 mm 1,0 UV-I 257 W/m 14,4 C 26,3 C 0,0 km/h (0 Bft) 0,00 %
01.09.2015 09:42 26,3 C 48 % 1010,5 hPa 0,0 l/m 0,0 km/h (0 Bft) N-NO 19 0 min 0,000 mm 1,0 UV-I 256 W/m 14,4 C 26,3 C 0,0 km/h (0 Bft) 0,00 %
01.09.2015 09:47 26,4 C 49 % 1010,4 hPa 0,0 l/m 0,0 km/h (0 Bft) N 353 0 min 0,000 mm 1,0 UV-I 282 W/m 14,8 C 26,4 C 0,0 km/h (0 Bft) 0,00 %
01.09.2015 09:52 26,6 C 48 % 1010,3 hPa 0,0 l/m 0,0 km/h (0 Bft) O-NO 58 5 min 0,000 mm 1,0 UV-I 319 W/m 14,7 C 26,6 C 0,0 km/h (0 Bft) 0,00 %
01.09.2015 09:57 26,6 C 48 % 1010,3 hPa 0,0 l/m 0,0 km/h (0 Bft) NO 36 5 min 0,000 mm 1,0 UV-I 319 W/m 14,7 C 26,6 C 0,0 km/h (0 Bft) 0,00 %
01.09.2015 10:02 26,7 C 48 % 1010,6 hPa 0,0 l/m 0,0 km/h (0 Bft) NO 45 5 min 0,000 mm 1,0 UV-I 349 W/m 14,8 C 26,7 C 0,0 km/h (0 Bft) 0,00 %
01.09.2015 10:07 26,9 C 46 % 1010,5 hPa 0,0 l/m 0,0 km/h (0 Bft) NO 46 5 min 0,000 mm 2,0 UV-I 404 W/m 14,3 C 26,9 C 0,0 km/h (0 Bft) 0,00 %
01.09.2015 10:12 27,4 C 46 % 1010,4 hPa 0,0 l/m 1,8 km/h (1 Bft) W-NW 299 5 min 0,000 mm 2,0 UV-I 410 W/m 14,7 C 27,4 C 4,0 km/h (1 Bft) 0,00 %
01.09.2015 10:17 27,7 C 46 % 1010,4 hPa 0,0 l/m 0,0 km/h (0 Bft) NO 36 5 min 0,000 mm 1,0 UV-I 342 W/m 15,0 C 27,7 C 0,0 km/h (0 Bft) 0,00 %
01.09.2015 10:22 27,7 C 46 % 1010,4 hPa 0,0 l/m 4,3 km/h (1 Bft) W-NW 289 5 min 0,000 mm 2,0 UV-I 340 W/m 15,0 C 27,7 C 7,9 km/h (2 Bft) 0,00 %
01.09.2015 10:27 27,7 C 47 % 1010,4 hPa 0,0 l/m 0,0 km/h (0 Bft) NO 56 5 min 0,000 mm 2,0 UV-I 343 W/m 15,3 C 27,7 C 0,0 km/h (0 Bft) 0,00 %
01.09.2015 10:32 27,8 C 44 % 1010,3 hPa 0,0 l/m 0,0 km/h (0 Bft) N-NO 27 5 min 0,000 mm 2,0 UV-I 361 W/m 14,4 C 27,8 C 0,0 km/h (0 Bft) 0,00 %
01.09.2015 10:37 28,3 C 43 % 1010,1 hPa 0,0 l/m 0,4 km/h (0 Bft) NO 51 5 min 0,000 mm 2,0 UV-I 352 W/m 14,5 C 28,3 C 4,0 km/h (1 Bft) 0,00 %
01.09.2015 10:42 28,8 C 43 % 1010,2 hPa 0,0 l/m 0,0 km/h (0 Bft) NO 39 0 min 0,000 mm 2,0 UV-I 348 W/m 15,0 C 28,8 C 0,0 km/h (0 Bft) 0,00 %
01.09.2015 10:47 29,0 C 41 % 1010,2 hPa 0,0 l/m 0,7 km/h (0 Bft) NW 315 5 min 0,000 mm 2,0 UV-I 447 W/m 14,4 C 29,0 C 4,0 km/h (1 Bft) 0,00 %
01.09.2015 10:52 29,4 C 42 % 1010,0 hPa 0,0 l/m 0,0 km/h (0 Bft) O-NO 65 5 min 0,000 mm 2,0 UV-I 468 W/m 15,1 C 29,4 C 0,0 km/h (0 Bft) 0,00 %
01.09.2015 10:57 29,9 C 39 % 1010,1 hPa 0,0 l/m 0,0 km/h (0 Bft) NO 34 5 min 0,000 mm 2,0 UV-I 573 W/m 14,4 C 29,9 C 0,0 km/h (0 Bft) 0,00 %
01.09.2015 11:02 30,3 C 39 % 1009,9 hPa 0,0 l/m 0,0 km/h (0 Bft) O-NO 78 5 min 0,000 mm 2,0 UV-I 387 W/m 14,8 C 30,3 C 0,0 km/h (0 Bft) 0,00 %
01.09.2015 11:07 30,7 C 38 % 1009,8 hPa 0,0 l/m 0,0 km/h (0 Bft) N 11 5 min 0,000 mm 2,0 UV-I 518 W/m 14,7 C 30,7 C 0,0 km/h (0 Bft) 0,00 %
01.09.2015 11:12 31,0 C 35 % 1009,8 hPa 0,0 l/m 0,0 km/h (0 Bft) NO 53 5 min 0,000 mm 2,0 UV-I 519 W/m 13,7 C 31,0 C 0,0 km/h (0 Bft) 0,00 %
01.09.2015 11:17 31,1 C 36 % 1009,7 hPa 0,0 l/m 0,7 km/h (0 Bft) N 1 5 min 0,000 mm 2,0 UV-I 600 W/m 14,2 C 31,1 C 4,0 km/h (1 Bft) 0,00 %
01.09.2015 11:22 30,8 C 35 % 1009,7 hPa 0,0 l/m 0,0 km/h (0 Bft) NO 35 5 min 0,000 mm 2,0 UV-I 621 W/m 13,5 C 30,8 C 0,0 km/h (0 Bft) 0,00 %
01.09.2015 11:27 30,6 C 33 % 1009,6 hPa 0,0 l/m 0,0 km/h (0 Bft) N-NO 31 5 min 0,000 mm 2,0 UV-I 600 W/m 12,5 C 30,6 C 0,0 km/h (0 Bft) 0,00 %
01.09.2015 11:32 30,7 C 30 % 1009,5 hPa 0,0 l/m 0,0 km/h (0 Bft) O-NO 69 5 min 0,000 mm 2,0 UV-I 616 W/m 11,1 C 30,7 C 0,0 km/h (0 Bft) 0,00 %
01.09.2015 11:37 31,0 C 30 % 1009,4 hPa 0,0 l/m 0,0 km/h (0 Bft) N 1 5 min 0,000 mm 2,0 UV-I 630 W/m 11,4 C 31,0 C 0,0 km/h (0 Bft) 0,00 %
01.09.2015 11:42 31,2 C 29 % 1009,3 hPa 0,0 l/m 0,0 km/h (0 Bft) NO 52 5 min 0,000 mm 3,0 UV-I 643 W/m 11,0 C 31,2 C 0,0 km/h (0 Bft) 0,00 %
01.09.2015 11:47 31,2 C 29 % 1009,2 hPa 0,0 l/m 0,0 km/h (0 Bft) NO 36 5 min 0,000 mm 3,0 UV-I 657 W/m 11,0 C 31,2 C 0,0 km/h (0 Bft) 0,00 %
01.09.2015 11:52 31,4 C 28 % 1009,0 hPa 0,0 l/m 1,4 km/h (1 Bft) N-NO 23 5 min 0,000 mm 3,0 UV-I 669 W/m 10,7 C 31,4 C 4,0 km/h (1 Bft) 0,00 %
01.09.2015 11:57 31,5 C 30 % 1009,0 hPa 0,0 l/m 0,0 km/h (0 Bft) NO 50 5 min 0,000 mm 3,0 UV-I 680 W/m 11,8 C 31,5 C 0,0 km/h (0 Bft) 0,00 %
01.09.2015 12:02 31,4 C 31 % 1008,9 hPa 0,0 l/m 0,0 km/h (0 Bft) N-NO 25 5 min 0,000 mm 3,0 UV-I 692 W/m 12,2 C 31,4 C 0,0 km/h (0 Bft) 0,00 %
01.09.2015 12:07 31,5 C 30 % 1009,0 hPa 0,0 l/m 0,4 km/h (0 Bft) O-NO 61 5 min 0,000 mm 3,0 UV-I 705 W/m 11,8 C 31,5 C 4,0 km/h (1 Bft) 0,00 %
01.09.2015 12:12 31,6 C 29 % 1008,9 hPa 0,0 l/m 1,4 km/h (1 Bft) W-NW 294 5 min 0,000 mm 3,0 UV-I 716 W/m 11,4 C 31,6 C 4,0 km/h (1 Bft) 0,00 %
01.09.2015 12:17 31,6 C 29 % 1008,8 hPa 0,0 l/m 0,0 km/h (0 Bft) NO 37 5 min 0,000 mm 3,0 UV-I 728 W/m 11,4 C 31,6 C 0,0 km/h (0 Bft) 0,00 %
01.09.2015 12:22 31,5 C 29 % 1008,7 hPa 0,0 l/m 0,4 km/h (0 Bft) N 350 5 min 0,000 mm 3,0 UV-I 733 W/m 11,3 C 31,5 C 4,0 km/h (1 Bft) 0,00 %
01.09.2015 12:27 31,4 C 29 % 1008,6 hPa 0,0 l/m 0,4 km/h (0 Bft) NO 43 5 min 0,000 mm 3,0 UV-I 736 W/m 11,2 C 31,4 C 4,0 km/h (1 Bft) 0,00 %
01.09.2015 12:32 31,4 C 30 % 1008,4 hPa 0,0 l/m 0,0 km/h (0 Bft) NO 48 5 min 0,000 mm 3,0 UV-I 743 W/m 11,7 C 31,4 C 0,0 km/h (0 Bft) 0,00 %
01.09.2015 12:37 31,3 C 29 % 1008,4 hPa 0,0 l/m 5,4 km/h (1 Bft) N-NW 344 5 min 0,000 mm 3,0 UV-I 752 W/m 11,1 C 31,3 C 7,9 km/h (2 Bft) 0,00 %
01.09.2015 12:42 31,2 C 30 % 1008,2 hPa 0,0 l/m 0,0 km/h (0 Bft) NO 51 5 min 0,000 mm 3,0 UV-I 757 W/m 11,5 C 31,2 C 0,0 km/h (0 Bft) 0,00 %
01.09.2015 12:47 31,2 C 29 % 1008,1 hPa 0,0 l/m 3,2 km/h (1 Bft) NW 319 5 min 0,000 mm 3,0 UV-I 765 W/m 11,0 C 31,2 C 4,0 km/h (1 Bft) 0,00 %
01.09.2015 12:52 31,2 C 30 % 1007,9 hPa 0,0 l/m 4,0 km/h (1 Bft) NO 36 5 min 0,000 mm 3,0 UV-I 763 W/m 11,5 C 31,2 C 4,0 km/h (1 Bft) 0,00 %
01.09.2015 12:57 31,2 C 29 % 1008,0 hPa 0,0 l/m 4,0 km/h (1 Bft) NO 39 5 min 0,000 mm 3,0 UV-I 760 W/m 11,0 C 31,2 C 4,0 km/h (1 Bft) 0,00 %
01.09.2015 13:02 31,1 C 29 % 1008,1 hPa 0,0 l/m 2,9 km/h (1 Bft) N 349 5 min 0,000 mm 3,0 UV-I 762 W/m 10,9 C 31,1 C 4,0 km/h (1 Bft) 0,00 %
01.09.2015 13:07 31,2 C 28 % 1007,9 hPa 0,0 l/m 1,4 km/h (1 Bft) N 0 5 min 0,000 mm 3,0 UV-I 775 W/m 10,5 C 31,2 C 4,0 km/h (1 Bft) 0,00 %
01.09.2015 13:12 31,3 C 28 % 1007,8 hPa 0,0 l/m 0,0 km/h (0 Bft) NO 43 5 min 0,000 mm 3,0 UV-I 775 W/m 10,6 C 31,3 C 0,0 km/h (0 Bft) 0,00 %
01.09.2015 13:17 31,5 C 28 % 1007,8 hPa 0,0 l/m 0,0 km/h (0 Bft) S 179 5 min 0,000 mm 3,0 UV-I 795 W/m 10,8 C 31,5 C 0,0 km/h (0 Bft) 0,00 %
01.09.2015 13:22 31,7 C 25 % 1007,7 hPa 0,0 l/m 1,4 km/h (1 Bft) N-NW 341 5 min 0,000 mm 3,0 UV-I 791 W/m 9,2 C 31,7 C 4,0 km/h (1 Bft) 0,00 %
01.09.2015 13:27 31,9 C 27 % 1007,4 hPa 0,0 l/m 0,0 km/h (0 Bft) NO 35 5 min 0,000 mm 3,0 UV-I 806 W/m 10,5 C 31,9 C 0,0 km/h (0 Bft) 0,00 %
01.09.2015 13:32 32,1 C 29 % 1007,4 hPa 0,0 l/m 2,9 km/h (1 Bft) NO 37 5 min 0,000 mm 3,0 UV-I 809 W/m 11,8 C 32,1 C 4,0 km/h (1 Bft) 0,00 %
01.09.2015 13:37 32,2 C 28 % 1007,4 hPa 0,0 l/m 0,7 km/h (0 Bft) O-NO 78 5 min 0,000 mm 3,0 UV-I 805 W/m 11,3 C 32,2 C 4,0 km/h (1 Bft) 0,00 %
01.09.2015 13:42 32,2 C 27 % 1007,0 hPa 0,0 l/m 5,8 km/h (2 Bft) O 92 5 min 0,000 mm 3,0 UV-I 813 W/m 10,8 C 32,2 C 7,9 km/h (2 Bft) 0,00 %
01.09.2015 13:47 32,3 C 26 % 1007,3 hPa 0,0 l/m 5,8 km/h (2 Bft) O-NO 78 5 min 0,000 mm 3,0 UV-I 813 W/m 10,3 C 32,3 C 11,9 km/h (2 Bft) 0,00 %
01.09.2015 13:52 32,4 C 26 % 1007,2 hPa 0,0 l/m 5,8 km/h (2 Bft) O-SO 116 5 min 0,000 mm 3,0 UV-I 811 W/m 10,4 C 32,4 C 7,9 km/h (2 Bft) 0,00 %
01.09.2015 13:57 32,5 C 26 % 1007,0 hPa 0,0 l/m 2,9 km/h (1 Bft) NO 49 5 min 0,000 mm 3,0 UV-I 813 W/m 10,5 C 32,5 C 4,0 km/h (1 Bft) 0,00 %
01.09.2015 14:02 32,6 C 26 % 1007,0 hPa 0,0 l/m 0,0 km/h (0 Bft) W 261 5 min 0,000 mm 3,0 UV-I 820 W/m 10,6 C 32,6 C 0,0 km/h (0 Bft) 0,00 %
01.09.2015 14:07 32,7 C 25 % 1007,0 hPa 0,0 l/m 4,3 km/h (1 Bft) O-NO 63 5 min 0,000 mm 3,0 UV-I 829 W/m 10,1 C 32,7 C 7,9 km/h (2 Bft) 0,00 %
01.09.2015 14:12 32,9 C 24 % 1006,9 hPa 0,0 l/m 0,7 km/h (0 Bft) O 85 5 min 0,000 mm 3,0 UV-I 829 W/m 9,6 C 32,9 C 4,0 km/h (1 Bft) 0,00 %
01.09.2015 14:17 33,0 C 24 % 1006,8 hPa 0,0 l/m 0,0 km/h (0 Bft) O-SO 116 5 min 0,000 mm 3,0 UV-I 838 W/m 9,7 C 33,0 C 0,0 km/h (0 Bft) 0,00 %
01.09.2015 14:22 33,1 C 24 % 1006,6 hPa 0,0 l/m 4,3 km/h (1 Bft) NW 307 5 min 0,000 mm 3,0 UV-I 844 W/m 9,8 C 33,1 C 7,9 km/h (2 Bft) 0,00 %
01.09.2015 14:27 33,2 C 24 % 1006,5 hPa 0,0 l/m 4,3 km/h (1 Bft) O-SO 115 5 min 0,000 mm 3,0 UV-I 843 W/m 9,9 C 33,2 C 7,9 km/h (2 Bft) 0,00 %
01.09.2015 14:32 33,4 C 23 % 1006,5 hPa 0,0 l/m 2,2 km/h (1 Bft) O-SO 115 5 min 0,000 mm 3,0 UV-I 848 W/m 9,4 C 33,4 C 4,0 km/h (1 Bft) 0,00 %
01.09.2015 14:37 33,5 C 23 % 1006,4 hPa 0,0 l/m 5,8 km/h (2 Bft) O-SO 123 5 min 0,000 mm 2,0 UV-I 846 W/m 9,5 C 33,5 C 7,9 km/h (2 Bft) 0,00 %
01.09.2015 14:42 33,6 C 23 % 1006,6 hPa 0,0 l/m 4,3 km/h (1 Bft) N 353 5 min 0,000 mm 2,0 UV-I 845 W/m 9,6 C 33,6 C 7,9 km/h (2 Bft) 0,00 %
01.09.2015 14:47 33,6 C 24 % 1006,3 hPa 0,0 l/m 4,3 km/h (1 Bft) W-SW 256 5 min 0,000 mm 2,0 UV-I 836 W/m 10,2 C 33,6 C 7,9 km/h (2 Bft) 0,00 %
01.09.2015 14:52 33,5 C 23 % 1006,4 hPa 0,0 l/m 4,7 km/h (1 Bft) O-NO 69 5 min 0,000 mm 2,0 UV-I 836 W/m 9,5 C 33,5 C 7,9 km/h (2 Bft) 0,00 %
01.09.2015 14:57 33,5 C 23 % 1006,4 hPa 0,0 l/m 4,3 km/h (1 Bft) N 351 5 min 0,000 mm 2,0 UV-I 835 W/m 9,5 C 33,5 C 7,9 km/h (2 Bft) 0,00 %
01.09.2015 15:02 33,5 C 23 % 1006,2 hPa 0,0 l/m 0,4 km/h (0 Bft) N 352 5 min 0,000 mm 1,0 UV-I 830 W/m 9,5 C 33,5 C 4,0 km/h (1 Bft) 0,00 %
01.09.2015 15:07 33,8 C 22 % 1005,7 hPa 0,0 l/m 3,2 km/h (1 Bft) NO 48 5 min 0,000 mm 1,0 UV-I 825 W/m 9,1 C 33,8 C 7,9 km/h (2 Bft) 0,00 %
01.09.2015 15:12 33,7 C 23 % 1005,9 hPa 0,0 l/m 0,7 km/h (0 Bft) W-NW 282 5 min 0,000 mm 1,0 UV-I 825 W/m 9,7 C 33,7 C 4,0 km/h (1 Bft) 0,00 %
01.09.2015 15:17 33,4 C 23 % 1006,0 hPa 0,0 l/m 0,7 km/h (0 Bft) S 175 5 min 0,000 mm 1,0 UV-I 831 W/m 9,4 C 33,4 C 4,0 km/h (1 Bft) 0,00 %
01.09.2015 15:22 33,2 C 23 % 1005,6 hPa 0,0 l/m 0,0 km/h (0 Bft) NO 55 5 min 0,000 mm 1,0 UV-I 823 W/m 9,2 C 33,2 C 0,0 km/h (0 Bft) 0,00 %
01.09.2015 15:27 33,2 C 24 % 1005,5 hPa 0,0 l/m 1,4 km/h (1 Bft) O-NO 68 5 min 0,000 mm 1,0 UV-I 813 W/m 9,9 C 33,2 C 4,0 km/h (1 Bft) 0,00 %
01.09.2015 15:32 33,1 C 24 % 1005,6 hPa 0,0 l/m 3,2 km/h (1 Bft) O-NO 63 5 min 0,000 mm 1,0 UV-I 806 W/m 9,8 C 33,1 C 4,0 km/h (1 Bft) 0,00 %
01.09.2015 15:37 33,0 C 24 % 1005,4 hPa 0,0 l/m 0,0 km/h (0 Bft) NO 50 5 min 0,000 mm 1,0 UV-I 792 W/m 9,7 C 33,0 C 0,0 km/h (0 Bft) 0,00 %
01.09.2015 15:42 33,0 C 24 % 1005,5 hPa 0,0 l/m 0,4 km/h (0 Bft) N 7 5 min 0,000 mm 1,0 UV-I 784 W/m 9,7 C 33,0 C 4,0 km/h (1 Bft) 0,00 %
01.09.2015 15:47 33,1 C 24 % 1005,6 hPa 0,0 l/m 6,5 km/h (2 Bft) SO 133 5 min 0,000 mm 1,0 UV-I 780 W/m 9,8 C 33,1 C 7,9 km/h (2 Bft) 0,00 %
01.09.2015 15:52 33,0 C 24 % 1005,4 hPa 0,0 l/m 1,8 km/h (1 Bft) S-SW 208 5 min 0,000 mm 1,0 UV-I 787 W/m 9,7 C 33,0 C 4,0 km/h (1 Bft) 0,00 %
01.09.2015 15:57 32,9 C 25 % 1005,3 hPa 0,0 l/m 0,0 km/h (0 Bft) NO 52 5 min 0,000 mm 1,0 UV-I 788 W/m 10,2 C 32,9 C 0,0 km/h (0 Bft) 0,00 %
01.09.2015 16:02 32,9 C 25 % 1005,3 hPa 0,0 l/m 0,0 km/h (0 Bft) N 8 5 min 0,000 mm 1,0 UV-I 768 W/m 10,2 C 32,9 C 0,0 km/h (0 Bft) 0,00 %
01.09.2015 16:07 32,9 C 26 % 1005,2 hPa 0,0 l/m 4,0 km/h (1 Bft) N-NO 20 5 min 0,000 mm 1,0 UV-I 766 W/m 10,8 C 32,9 C 7,9 km/h (2 Bft) 0,00 %
01.09.2015 16:12 32,8 C 25 % 1005,4 hPa 0,0 l/m 0,0 km/h (0 Bft) N-NW 341 5 min 0,000 mm 1,0 UV-I 760 W/m 10,2 C 32,8 C 0,0 km/h (0 Bft) 0,00 %
01.09.2015 16:17 32,8 C 25 % 1005,2 hPa 0,0 l/m 0,0 km/h (0 Bft) N-NO 24 5 min 0,000 mm 1,0 UV-I 755 W/m 10,2 C 32,8 C 0,0 km/h (0 Bft) 0,00 %
01.09.2015 16:22 32,7 C 27 % 1005,2 hPa 0,0 l/m 0,0 km/h (0 Bft) NO 39 5 min 0,000 mm 1,0 UV-I 750 W/m 11,2 C 32,7 C 0,0 km/h (0 Bft) 0,00 %
01.09.2015 16:27 32,8 C 25 % 1005,0 hPa 0,0 l/m 0,0 km/h (0 Bft) NO 44 5 min 0,000 mm 1,0 UV-I 730 W/m 10,2 C 32,8 C 0,0 km/h (0 Bft) 0,00 %
01.09.2015 16:32 32,9 C 25 % 1005,1 hPa 0,0 l/m 0,0 km/h (0 Bft) O-NO 69 5 min 0,000 mm 1,0 UV-I 720 W/m 10,2 C 32,9 C 0,0 km/h (0 Bft) 0,00 %
01.09.2015 16:37 33,0 C 24 % 1005,1 hPa 0,0 l/m 0,0 km/h (0 Bft) N-NO 33 5 min 0,000 mm 1,0 UV-I 710 W/m 9,7 C 33,0 C 0,0 km/h (0 Bft) 0,00 %
01.09.2015 16:42 33,0 C 24 % 1004,9 hPa 0,0 l/m 0,7 km/h (0 Bft) NO 38 5 min 0,000 mm 1,0 UV-I 722 W/m 9,7 C 33,0 C 4,0 km/h (1 Bft) 0,00 %
01.09.2015 16:47 33,0 C 24 % 1005,0 hPa 0,0 l/m 0,0 km/h (0 Bft) NO 47 5 min 0,000 mm 1,0 UV-I 700 W/m 9,7 C 33,0 C 0,0 km/h (0 Bft) 0,00 %
01.09.2015 16:52 33,1 C 24 % 1004,9 hPa 0,0 l/m 0,0 km/h (0 Bft) NO 35 5 min 0,000 mm 1,0 UV-I 688 W/m 9,8 C 33,1 C 0,0 km/h (0 Bft) 0,00 %
01.09.2015 16:57 33,0 C 24 % 1004,7 hPa 0,0 l/m 4,0 km/h (1 Bft) N 351 5 min 0,000 mm 1,0 UV-I 699 W/m 9,7 C 33,0 C 4,0 km/h (1 Bft) 0,00 %
01.09.2015 17:02 33,0 C 25 % 1004,9 hPa 0,0 l/m 0,4 km/h (0 Bft) N-NO 19 5 min 0,000 mm 1,0 UV-I 678 W/m 10,3 C 33,0 C 4,0 km/h (1 Bft) 0,00 %
01.09.2015 17:07 32,9 C 23 % 1004,8 hPa 0,0 l/m 0,0 km/h (0 Bft) NO 48 5 min 0,000 mm 1,0 UV-I 645 W/m 9,0 C 32,9 C 0,0 km/h (0 Bft) 0,00 %
01.09.2015 17:12 33,0 C 24 % 1004,8 hPa 0,0 l/m 0,0 km/h (0 Bft) NO 36 5 min 0,000 mm 1,0 UV-I 653 W/m 9,7 C 33,0 C 0,0 km/h (0 Bft) 0,00 %
01.09.2015 17:17 33,1 C 24 % 1004,6 hPa 0,0 l/m 0,0 km/h (0 Bft) N 353 5 min 0,000 mm 1,0 UV-I 660 W/m 9,8 C 33,1 C 0,0 km/h (0 Bft) 0,00 %
01.09.2015 17:22 33,4 C 23 % 1004,7 hPa 0,0 l/m 3,2 km/h (1 Bft) O-SO 114 5 min 0,000 mm 1,0 UV-I 652 W/m 9,4 C 33,4 C 4,0 km/h (1 Bft) 0,00 %
01.09.2015 17:27 33,7 C 23 % 1004,6 hPa 0,0 l/m 1,4 km/h (1 Bft) S-SO 166 5 min 0,000 mm 1,0 UV-I 638 W/m 9,7 C 33,7 C 4,0 km/h (1 Bft) 0,00 %
01.09.2015 17:32 33,8 C 22 % 1004,6 hPa 0,0 l/m 0,0 km/h (0 Bft) N-NO 32 5 min 0,000 mm 1,0 UV-I 612 W/m 9,1 C 33,8 C 0,0 km/h (0 Bft) 0,00 %
01.09.2015 17:37 33,9 C 21 % 1004,6 hPa 0,0 l/m 0,0 km/h (0 Bft) NO 46 5 min 0,000 mm 1,0 UV-I 592 W/m 8,5 C 33,9 C 0,0 km/h (0 Bft) 0,00 %
01.09.2015 17:42 33,9 C 23 % 1004,5 hPa 0,0 l/m 0,0 km/h (0 Bft) N-NW 338 5 min 0,000 mm 1,0 UV-I 566 W/m 9,8 C 33,9 C 0,0 km/h (0 Bft) 0,00 %
01.09.2015 17:47 34,0 C 21 % 1004,6 hPa 0,0 l/m 0,0 km/h (0 Bft) NO 41 5 min 0,000 mm 1,0 UV-I 542 W/m 8,6 C 34,0 C 0,0 km/h (0 Bft) 0,00 %
01.09.2015 17:52 34,0 C 23 % 1005,2 hPa 0,0 l/m 2,2 km/h (1 Bft) O-NO 57 0 min 0,000 mm 1,0 UV-I 168 W/m 9,9 C 34,0 C 4,0 km/h (1 Bft) 0,00 %
01.09.2015 17:57 33,7 C 23 % 1005,1 hPa 0,0 l/m 0,0 km/h (0 Bft) NO 46 0 min 0,000 mm 1,0 UV-I 137 W/m 9,7 C 33,7 C 0,0 km/h (0 Bft) 0,00 %
01.09.2015 18:02 33,3 C 26 % 1005,0 hPa 0,0 l/m 0,0 km/h (0 Bft) N-NW 348 0 min 0,000 mm 1,0 UV-I 119 W/m 11,2 C 33,3 C 0,0 km/h (0 Bft) 0,00 %
01.09.2015 18:07 32,8 C 27 % 1005,1 hPa 0,0 l/m 0,0 km/h (0 Bft) NO 44 0 min 0,000 mm 1,0 UV-I 110 W/m 11,3 C 32,8 C 0,0 km/h (0 Bft) 0,00 %
01.09.2015 18:12 32,4 C 24 % 1005,1 hPa 0,0 l/m 0,0 km/h (0 Bft) NO 45 0 min 0,000 mm 1,0 UV-I 110 W/m 9,2 C 32,4 C 0,0 km/h (0 Bft) 0,00 %
01.09.2015 18:17 31,9 C 24 % 1004,9 hPa 0,0 l/m 0,0 km/h (0 Bft) NO 41 5 min 0,000 mm 1,0 UV-I 331 W/m 8,8 C 31,9 C 0,0 km/h (0 Bft) 0,00 %
01.09.2015 18:22 31,6 C 24 % 1004,8 hPa 0,0 l/m 0,0 km/h (0 Bft) NO 39 5 min 0,000 mm 1,0 UV-I 282 W/m 8,5 C 31,6 C 0,0 km/h (0 Bft) 0,00 %
01.09.2015 18:27 31,5 C 27 % 1004,9 hPa 0,0 l/m 0,0 km/h (0 Bft) NO 35 5 min 0,000 mm 0,0 UV-I 262 W/m 10,2 C 31,5 C 0,0 km/h (0 Bft) 0,00 %
01.09.2015 18:32 31,5 C 28 % 1004,9 hPa 0,0 l/m 0,0 km/h (0 Bft) NO 36 5 min 0,000 mm 0,0 UV-I 204 W/m 10,8 C 31,5 C 0,0 km/h (0 Bft) 0,00 %
01.09.2015 18:37 31,5 C 28 % 1005,1 hPa 0,0 l/m 0,0 km/h (0 Bft) NO 38 5 min 0,000 mm 0,0 UV-I 107 W/m 10,8 C 31,5 C 0,0 km/h (0 Bft) 0,00 %
01.09.2015 18:42 31,3 C 28 % 1005,0 hPa 0,0 l/m 0,0 km/h (0 Bft) NO 45 5 min 0,000 mm 0,0 UV-I 93 W/m 10,6 C 31,3 C 0,0 km/h (0 Bft) 0,00 %
01.09.2015 18:47 31,0 C 30 % 1004,9 hPa 0,0 l/m 0,0 km/h (0 Bft) NO 47 0 min 0,000 mm 0,0 UV-I 58 W/m 11,4 C 31,0 C 0,0 km/h (0 Bft) 0,00 %
01.09.2015 18:52 30,7 C 30 % 1005,2 hPa 0,0 l/m 0,0 km/h (0 Bft) NO 45 0 min 0,000 mm 0,0 UV-I 62 W/m 11,1 C 30,7 C 0,0 km/h (0 Bft) 0,00 %
01.09.2015 18:57 30,3 C 30 % 1005,2 hPa 0,0 l/m 0,0 km/h (0 Bft) N 5 0 min 0,000 mm 0,0 UV-I 57 W/m 10,8 C 30,3 C 0,0 km/h (0 Bft) 0,00 %
01.09.2015 19:02 30,0 C 31 % 1005,1 hPa 0,0 l/m 0,0 km/h (0 Bft) N-NW 348 0 min 0,000 mm 0,0 UV-I 49 W/m 11,0 C 30,0 C 0,0 km/h (0 Bft) 0,00 %
01.09.2015 19:07 29,8 C 31 % 1005,3 hPa 0,0 l/m 0,0 km/h (0 Bft) NO 44 0 min 0,000 mm 0,0 UV-I 40 W/m 10,8 C 29,8 C 0,0 km/h (0 Bft) 0,00 %
01.09.2015 19:12 29,5 C 32 % 1005,2 hPa 0,0 l/m 0,0 km/h (0 Bft) NO 46 0 min 0,000 mm 0,0 UV-I 28 W/m 11,0 C 29,5 C 0,0 km/h (0 Bft) 0,00 %
01.09.2015 19:17 29,2 C 34 % 1005,2 hPa 0,0 l/m 0,0 km/h (0 Bft) NO 42 0 min 0,000 mm 0,0 UV-I 21 W/m 11,7 C 29,2 C 0,0 km/h (0 Bft) 0,00 %
01.09.2015 19:22 28,9 C 35 % 1005,2 hPa 0,0 l/m 0,0 km/h (0 Bft) NO 46 0 min 0,000 mm 0,0 UV-I 12 W/m 11,9 C 28,9 C 0,0 km/h (0 Bft) 0,00 %
01.09.2015 19:27 28,5 C 36 % 1005,3 hPa 0,0 l/m 0,0 km/h (0 Bft) O 81 0 min 0,000 mm 0,0 UV-I 7 W/m 12,0 C 28,5 C 0,0 km/h (0 Bft) 0,00 %
01.09.2015 19:32 28,2 C 36 % 1005,5 hPa 0,0 l/m 0,0 km/h (0 Bft) N-NO 29 0 min 0,000 mm 0,0 UV-I 5 W/m 11,7 C 28,2 C 0,0 km/h (0 Bft) 0,00 %
01.09.2015 19:37 28,0 C 38 % 1005,7 hPa 0,0 l/m 0,0 km/h (0 Bft) N-NW 346 0 min 0,000 mm 0,0 UV-I 0 W/m 12,3 C 28,0 C 0,0 km/h (0 Bft) 0,00 %
01.09.2015 19:42 27,9 C 36 % 1005,8 hPa 0,0 l/m 1,4 km/h (1 Bft) N-NW 342 0 min 0,000 mm 0,0 UV-I 0 W/m 11,4 C 27,9 C 4,0 km/h (1 Bft) 0,00 %
01.09.2015 19:47 28,0 C 35 % 1006,2 hPa 0,0 l/m 6,5 km/h (2 Bft) NW 309 0 min 0,000 mm 0,0 UV-I 0 W/m 11,1 C 28,0 C 11,9 km/h (2 Bft) 0,00 %
01.09.2015 19:52 28,1 C 40 % 1006,6 hPa 0,0 l/m 18,0 km/h (3 Bft) W 281 0 min 0,000 mm 0,0 UV-I 0 W/m 13,2 C 26,8 C 24,1 km/h (4 Bft) 0,00 %
01.09.2015 19:57 27,2 C 40 % 1007,1 hPa 0,0 l/m 33,1 km/h (5 Bft) W 263 0 min 0,000 mm 0,0 UV-I 0 W/m 12,4 C 24,7 C 40,0 km/h (6 Bft) 0,00 %
01.09.2015 20:02 26,1 C 42 % 1007,4 hPa 0,0 l/m 13,0 km/h (3 Bft) N-NW 347 0 min 0,000 mm 0,0 UV-I 0 W/m 12,2 C 24,9 C 19,8 km/h (3 Bft) 0,00 %
01.09.2015 20:07 25,5 C 42 % 1007,4 hPa 0,0 l/m 2,9 km/h (1 Bft) S-SW 207 0 min 0,000 mm 0,0 UV-I 0 W/m 11,6 C 25,5 C 4,0 km/h (1 Bft) 0,00 %
01.09.2015 20:12 25,2 C 43 % 1008,0 hPa 0,0 l/m 5,8 km/h (2 Bft) W-NW 292 0 min 0,000 mm 0,0 UV-I 0 W/m 11,7 C 25,2 C 11,9 km/h (2 Bft) 0,00 %
01.09.2015 20:17 25,0 C 44 % 1007,9 hPa 0,0 l/m 14,8 km/h (3 Bft) W-SW 256 0 min 0,000 mm 0,0 UV-I 0 W/m 11,9 C 23,3 C 19,8 km/h (3 Bft) 0,00 %
01.09.2015 20:22 24,9 C 44 % 1008,3 hPa 0,0 l/m 10,4 km/h (2 Bft) NW 316 0 min 0,000 mm 0,0 UV-I 0 W/m 11,8 C 24,0 C 11,9 km/h (2 Bft) 0,00 %
01.09.2015 20:27 24,8 C 44 % 1008,7 hPa 0,0 l/m 9,4 km/h (2 Bft) W-NW 286 0 min 0,000 mm 0,0 UV-I 0 W/m 11,7 C 24,1 C 11,9 km/h (2 Bft) 0,00 %
01.09.2015 20:32 24,7 C 43 % 1008,7 hPa 0,0 l/m 14,4 km/h (3 Bft) NO 39 0 min 0,000 mm 0,0 UV-I 0 W/m 11,3 C 23,0 C 19,8 km/h (3 Bft) 0,00 %
01.09.2015 20:37 24,6 C 42 % 1008,7 hPa 0,0 l/m 5,4 km/h (1 Bft) W-SW 255 0 min 0,000 mm 0,0 UV-I 0 W/m 10,8 C 24,6 C 7,9 km/h (2 Bft) 0,00 %
01.09.2015 20:42 24,5 C 43 % 1008,8 hPa 0,0 l/m 4,0 km/h (1 Bft) O-NO 75 0 min 0,000 mm 0,0 UV-I 0 W/m 11,1 C 24,5 C 7,9 km/h (2 Bft) 0,00 %
01.09.2015 20:47 24,4 C 43 % 1009,0 hPa 0,0 l/m 15,5 km/h (3 Bft) SW 227 0 min 0,000 mm 0,0 UV-I 0 W/m 11,0 C 22,5 C 19,8 km/h (3 Bft) 0,00 %
01.09.2015 20:52 24,3 C 43 % 1009,3 hPa 0,0 l/m 10,4 km/h (2 Bft) W-SW 255 0 min 0,000 mm 0,0 UV-I 0 W/m 10,9 C 23,3 C 15,8 km/h (3 Bft) 0,00 %
01.09.2015 20:57 24,2 C 44 % 1009,6 hPa 0,0 l/m 10,8 km/h (2 Bft) W 262 0 min 0,000 mm 0,0 UV-I 0 W/m 11,2 C 23,1 C 15,8 km/h (3 Bft) 0,00 %
01.09.2015 21:02 24,2 C 44 % 1009,8 hPa 0,0 l/m 14,4 km/h (3 Bft) W-SW 256 0 min 0,000 mm 0,0 UV-I 0 W/m 11,2 C 22,4 C 15,8 km/h (3 Bft) 0,00 %
01.09.2015 21:07 24,1 C 45 % 1009,9 hPa 0,0 l/m 5,4 km/h (1 Bft) W-SW 255 0 min 0,000 mm 0,0 UV-I 0 W/m 11,4 C 24,1 C 7,9 km/h (2 Bft) 0,00 %
01.09.2015 21:12 24,0 C 46 % 1010,4 hPa 0,0 l/m 2,9 km/h (1 Bft) W-SW 256 0 min 0,000 mm 0,0 UV-I 0 W/m 11,7 C 24,0 C 4,0 km/h (1 Bft) 0,00 %
01.09.2015 21:17 23,8 C 50 % 1010,7 hPa 0,0 l/m 4,3 km/h (1 Bft) W 281 0 min 0,000 mm 0,0 UV-I 0 W/m 12,7 C 23,8 C 7,9 km/h (2 Bft) 0,00 %
01.09.2015 21:22 23,5 C 52 % 1010,8 hPa 0,0 l/m 9,0 km/h (2 Bft) N-NW 340 0 min 0,000 mm 0,0 UV-I 0 W/m 13,1 C 22,8 C 15,8 km/h (3 Bft) 0,00 %
01.09.2015 21:27 23,1 C 54 % 1011,0 hPa 0,0 l/m 7,9 km/h (2 Bft) N-NW 328 0 min 0,000 mm 0,0 UV-I 0 W/m 13,3 C 22,6 C 11,9 km/h (2 Bft) 0,00 %
01.09.2015 21:32 22,7 C 55 % 1010,9 hPa 0,0 l/m 16,9 km/h (3 Bft) W-SW 244 0 min 0,000 mm 0,0 UV-I 0 W/m 13,2 C 20,2 C 28,1 km/h (4 Bft) 0,00 %
01.09.2015 21:37 22,2 C 57 % 1011,1 hPa 0,0 l/m 1,8 km/h (1 Bft) NO 37 0 min 0,000 mm 0,0 UV-I 0 W/m 13,3 C 22,2 C 7,9 km/h (2 Bft) 0,00 %
01.09.2015 21:42 21,9 C 58 % 1011,4 hPa 0,0 l/m 9,7 km/h (2 Bft) W-NW 284 0 min 0,000 mm 0,0 UV-I 0 W/m 13,3 C 20,8 C 11,9 km/h (2 Bft) 0,00 %
01.09.2015 21:47 21,7 C 58 % 1011,5 hPa 0,0 l/m 10,8 km/h (2 Bft) W-SW 254 0 min 0,000 mm 0,0 UV-I 0 W/m 13,1 C 20,3 C 11,9 km/h (2 Bft) 0,00 %
01.09.2015 21:52 21,6 C 58 % 1011,5 hPa 0,0 l/m 11,9 km/h (2 Bft) W 278 0 min 0,000 mm 0,0 UV-I 0 W/m 13,0 C 19,9 C 15,8 km/h (3 Bft) 0,00 %
01.09.2015 21:57 21,4 C 58 % 1011,5 hPa 0,0 l/m 9,7 km/h (2 Bft) SW 231 0 min 0,000 mm 0,0 UV-I 0 W/m 12,8 C 20,3 C 19,8 km/h (3 Bft) 0,00 %
01.09.2015 22:02 21,2 C 59 % 1011,6 hPa 0,0 l/m 9,7 km/h (2 Bft) NW 304 0 min 0,000 mm 0,0 UV-I 0 W/m 12,9 C 20,1 C 19,8 km/h (3 Bft) 0,00 %
01.09.2015 22:07 21,1 C 59 % 1011,6 hPa 0,0 l/m 4,0 km/h (1 Bft) O-NO 76 0 min 0,000 mm 0,0 UV-I 0 W/m 12,8 C 21,1 C 11,9 km/h (2 Bft) 0,00 %
01.09.2015 22:12 20,9 C 61 % 1012,0 hPa 0,0 l/m 15,5 km/h (3 Bft) W-SW 256 0 min 0,000 mm 0,0 UV-I 0 W/m 13,1 C 18,2 C 24,1 km/h (4 Bft) 0,00 %
01.09.2015 22:17 20,8 C 61 % 1011,8 hPa 0,0 l/m 18,0 km/h (3 Bft) W-SW 256 0 min 0,000 mm 0,0 UV-I 0 W/m 13,0 C 17,6 C 19,8 km/h (3 Bft) 0,00 %
01.09.2015 22:22 20,7 C 61 % 1012,2 hPa 0,0 l/m 6,5 km/h (2 Bft) N 353 0 min 0,000 mm 0,0 UV-I 0 W/m 12,9 C 20,7 C 11,9 km/h (2 Bft) 0,00 %
01.09.2015 22:27 20,7 C 62 % 1012,2 hPa 0,0 l/m 7,2 km/h (2 Bft) S 175 0 min 0,000 mm 0,0 UV-I 0 W/m 13,2 C 20,4 C 11,9 km/h (2 Bft) 0,00 %
01.09.2015 22:32 20,7 C 62 % 1012,4 hPa 0,0 l/m 6,5 km/h (2 Bft) N-NW 345 0 min 0,000 mm 0,0 UV-I 0 W/m 13,2 C 20,7 C 7,9 km/h (2 Bft) 0,00 %
01.09.2015 22:37 20,6 C 62 % 1012,6 hPa 0,0 l/m 8,3 km/h (2 Bft) W-SW 251 0 min 0,000 mm 0,0 UV-I 0 W/m 13,1 C 19,9 C 11,9 km/h (2 Bft) 0,00 %
01.09.2015 22:42 20,6 C 63 % 1012,8 hPa 0,0 l/m 9,0 km/h (2 Bft) NW 311 0 min 0,000 mm 0,0 UV-I 0 W/m 13,3 C 19,6 C 11,9 km/h (2 Bft) 0,00 %
01.09.2015 22:47 20,5 C 66 % 1013,0 hPa 0,0 l/m 0,0 km/h (0 Bft) N 354 0 min 0,000 mm 0,0 UV-I 0 W/m 13,9 C 20,5 C 0,0 km/h (0 Bft) 0,00 %
01.09.2015 22:52 20,3 C 67 % 1012,8 hPa 0,0 l/m 1,8 km/h (1 Bft) N 356 0 min 0,000 mm 0,0 UV-I 0 W/m 14,0 C 20,3 C 4,0 km/h (1 Bft) 0,00 %
01.09.2015 22:57 20,1 C 68 % 1012,8 hPa 0,0 l/m 5,4 km/h (1 Bft) W-SW 250 0 min 0,000 mm 0,0 UV-I 0 W/m 14,0 C 20,1 C 7,9 km/h (2 Bft) 0,00 %
01.09.2015 23:02 20,1 C 68 % 1013,1 hPa 0,0 l/m 4,0 km/h (1 Bft) W-NW 291 0 min 0,000 mm 0,0 UV-I 0 W/m 14,0 C 20,1 C 7,9 km/h (2 Bft) 0,00 %
01.09.2015 23:07 20,0 C 68 % 1013,1 hPa 0,0 l/m 1,8 km/h (1 Bft) NW 321 0 min 0,000 mm 0,0 UV-I 0 W/m 13,9 C 20,0 C 4,0 km/h (1 Bft) 0,00 %
01.09.2015 23:12 20,0 C 67 % 1013,2 hPa 0,0 l/m 0,4 km/h (0 Bft) N 8 0 min 0,000 mm 0,0 UV-I 0 W/m 13,7 C 20,0 C 4,0 km/h (1 Bft) 0,00 %
01.09.2015 23:17 20,0 C 67 % 1013,3 hPa 0,0 l/m 0,4 km/h (0 Bft) N-NO 27 0 min 0,000 mm 0,0 UV-I 0 W/m 13,7 C 20,0 C 4,0 km/h (1 Bft) 0,00 %
01.09.2015 23:22 20,0 C 67 % 1013,2 hPa 0,0 l/m 0,7 km/h (0 Bft) N 353 0 min 0,000 mm 0,0 UV-I 0 W/m 13,7 C 20,0 C 4,0 km/h (1 Bft) 0,00 %
01.09.2015 23:27 19,9 C 68 % 1013,3 hPa 0,0 l/m 0,7 km/h (0 Bft) N 355 0 min 0,000 mm 0,0 UV-I 0 W/m 13,8 C 19,9 C 4,0 km/h (1 Bft) 0,00 %
01.09.2015 23:32 19,9 C 67 % 1013,4 hPa 0,0 l/m 4,0 km/h (1 Bft) N-NW 348 0 min 0,000 mm 0,0 UV-I 0 W/m 13,6 C 19,9 C 7,9 km/h (2 Bft) 0,00 %
01.09.2015 23:37 19,9 C 67 % 1013,4 hPa 0,0 l/m 10,4 km/h (2 Bft) W-SW 249 0 min 0,000 mm 0,0 UV-I 0 W/m 13,6 C 18,4 C 11,9 km/h (2 Bft) 0,00 %
01.09.2015 23:42 19,9 C 67 % 1013,5 hPa 0,0 l/m 0,0 km/h (0 Bft) N 350 0 min 0,000 mm 0,0 UV-I 0 W/m 13,6 C 19,9 C 0,0 km/h (0 Bft) 0,00 %
01.09.2015 23:47 19,9 C 67 % 1013,4 hPa 0,0 l/m 0,0 km/h (0 Bft) N-NW 344 0 min 0,000 mm 0,0 UV-I 0 W/m 13,6 C 19,9 C 0,0 km/h (0 Bft) 0,00 %
01.09.2015 23:52 19,8 C 69 % 1013,5 hPa 0,0 l/m 6,8 km/h (2 Bft) S 172 0 min 0,000 mm 0,0 UV-I 0 W/m 13,9 C 19,6 C 7,9 km/h (2 Bft) 0,00 %
01.09.2015 23:58 19,7 C 71 % 1013,6 hPa 0,0 l/m 9,0 km/h (2 Bft) W-SW 255 0 min 0,000 mm 0,0 UV-I 0 W/m 14,3 C 18,7 C 11,9 km/h (2 Bft) 0,00 %
_ Min-Zeit 06:36 17:37 17:42 - 00:01 - - - - - - 17:37 06:36 00:01 00:01
Minimum _ 16,7 C 21 % 1004,5 hPa - 0,0 km/h (0 Bft) - - - - - - 8,5 C 16,7 C 0,0 km/h (0 Bft) 0,00 %
_ Max-Zeit 17:47 06:46 23:58 00:01 19:57 - - 07:07 00:01 11:42 14:32 10:27 17:47 19:57 00:01
Maximum _ 34,0 C 82 % 1013,6 hPa 0,0 l/m 33,1 km/h
W (5 Bft)
- - 6 min 0,000 mm 3,0 UV-I 848 W/m 15,3 C 34,0 C 40,0 km/h
W (6 Bft)
0,00 %
Durchschnitt _ 25,6 C 49 % 1009,3 hPa #0,0 l/m 1,9 km/h (1 Bft) W-SW - #10:46 h #0,000 mm 1,7 UV-I 472 W/m 12,6 C 25,5 C 3,1 km/h (1 Bft) 0,00 %